Time,TemperatureF,DewpointF,PressureIn,WindDirection,WindDirectionDegrees,WindSpeedMPH,WindSpeedGustMPH,Humidity,HourlyPrecipIn,Conditions,Clouds,dailyrainin,SoftwareType,DateUTC
2013-04-30 00:03:00,62.3,49.2,29.46,North,0,0.4,0.4,62,0.00,,,0.00,WUHU216HW,2013-04-30 07:03:00,
2013-04-30 00:08:00,62.3,49.2,29.46,NNE,23,0.0,0.7,62,0.00,,,0.00,WUHU216HW,2013-04-30 07:08:00,
2013-04-30 00:13:00,62.1,49.3,29.46,NNE,23,0.2,0.7,63,0.00,,,0.00,WUHU216HW,2013-04-30 07:13:00,
2013-04-30 00:18:00,61.9,49.2,29.46,SW,225,0.0,1.1,63,0.00,,,0.00,WUHU216HW,2013-04-30 07:18:00,
2013-04-30 00:23:00,61.6,49.3,29.46,ENE,68,0.4,1.1,64,0.00,,,0.00,WUHU216HW,2013-04-30 07:23:00,
2013-04-30 00:28:00,61.2,49.0,29.46,West,270,0.0,0.7,64,0.00,,,0.00,WUHU216HW,2013-04-30 07:28:00,
2013-04-30 00:34:00,60.8,49.1,29.46,West,270,0.0,0.4,65,0.00,,,0.00,WUHU216HW,2013-04-30 07:34:00,
2013-04-30 00:39:00,60.8,49.1,29.46,West,270,0.0,0.0,65,0.00,,,0.00,WUHU216HW,2013-04-30 07:39:00,
2013-04-30 00:44:00,60.8,49.1,29.46,West,270,0.0,0.0,65,0.00,,,0.00,WUHU216HW,2013-04-30 07:44:00,
2013-04-30 00:49:00,60.8,49.1,29.46,West,270,0.0,0.0,65,0.00,,,0.00,WUHU216HW,2013-04-30 07:49:00,
2013-04-30 00:54:00,60.7,48.9,29.47,North,0,2.2,2.2,65,0.00,,,0.00,WUHU216HW,2013-04-30 07:54:00,
2013-04-30 00:59:00,60.5,48.7,29.47,ENE,68,0.2,2.2,65,0.00,,,0.00,WUHU216HW,2013-04-30 07:59:00,
2013-04-30 01:04:00,60.3,48.5,29.47,South,180,0.0,2.2,65,0.00,,,0.00,WUHU216HW,2013-04-30 08:04:00,
2013-04-30 01:09:00,60.1,48.3,29.47,South,180,0.0,0.9,65,0.00,,,0.00,WUHU216HW,2013-04-30 08:09:00,
2013-04-30 01:14:00,60.1,48.3,29.47,South,180,0.0,0.2,65,0.00,,,0.00,WUHU216HW,2013-04-30 08:14:00,
2013-04-30 01:19:00,59.9,48.2,29.47,South,180,0.0,0.0,65,0.00,,,0.00,WUHU216HW,2013-04-30 08:19:00,
2013-04-30 01:24:00,59.8,48.0,29.47,South,180,0.0,0.0,65,0.00,,,0.00,WUHU216HW,2013-04-30 08:24:00,
2013-04-30 01:29:00,59.4,48.1,29.46,South,180,0.0,0.0,66,0.00,,,0.00,WUHU216HW,2013-04-30 08:29:00,
2013-04-30 01:34:00,59.4,48.4,29.47,South,180,0.0,0.0,67,0.00,,,0.00,WUHU216HW,2013-04-30 08:34:00,
2013-04-30 01:39:00,59.0,48.1,29.46,South,180,0.0,0.0,67,0.00,,,0.00,WUHU216HW,2013-04-30 08:39:00,
2013-04-30 01:43:00,58.7,48.2,29.46,South,180,0.0,0.0,68,0.00,,,0.00,WUHU216HW,2013-04-30 08:43:00,
2013-04-30 01:48:00,58.7,48.2,29.46,South,180,0.0,0.0,68,0.00,,,0.00,WUHU216HW,2013-04-30 08:48:00,
2013-04-30 01:54:00,58.7,48.2,29.46,South,180,0.0,0.0,68,0.00,,,0.00,WUHU216HW,2013-04-30 08:54:00,
2013-04-30 01:59:00,58.5,48.3,29.46,South,180,0.0,0.0,69,0.00,,,0.00,WUHU216HW,2013-04-30 08:59:00,
2013-04-30 02:04:00,58.3,48.2,29.46,South,180,0.0,0.0,69,0.00,,,0.00,WUHU216HW,2013-04-30 09:04:00,
2013-04-30 02:09:00,58.1,48.0,29.46,South,180,0.0,0.0,69,0.00,,,0.00,WUHU216HW,2013-04-30 09:09:00,
2013-04-30 02:14:00,58.0,47.9,29.46,South,180,0.0,0.0,69,0.00,,,0.00,WUHU216HW,2013-04-30 09:14:00,
2013-04-30 02:19:00,57.8,47.7,29.46,South,180,0.0,0.0,69,0.00,,,0.00,WUHU216HW,2013-04-30 09:19:00,
2013-04-30 02:24:00,57.6,47.9,29.46,South,180,0.0,0.0,70,0.00,,,0.00,WUHU216HW,2013-04-30 09:24:00,
2013-04-30 02:29:00,57.4,48.1,29.46,South,180,0.0,0.0,71,0.00,,,0.00,WUHU216HW,2013-04-30 09:29:00,
2013-04-30 02:34:00,57.2,47.9,29.46,South,180,0.0,0.0,71,0.00,,,0.00,WUHU216HW,2013-04-30 09:34:00,
2013-04-30 02:39:00,57.2,47.5,29.46,South,180,0.0,0.0,70,0.00,,,0.00,WUHU216HW,2013-04-30 09:39:00,
2013-04-30 02:44:00,57.2,47.5,29.46,South,180,0.0,0.0,70,0.00,,,0.00,WUHU216HW,2013-04-30 09:44:00,
2013-04-30 02:49:00,57.2,47.5,29.46,South,180,0.0,0.0,70,0.00,,,0.00,WUHU216HW,2013-04-30 09:49:00,
2013-04-30 02:54:00,57.2,47.9,29.46,South,180,0.0,0.2,71,0.00,,,0.00,WUHU216HW,2013-04-30 09:54:00,
2013-04-30 02:59:00,57.2,47.9,29.46,South,180,0.0,0.2,71,0.00,,,0.00,WUHU216HW,2013-04-30 09:59:00,
2013-04-30 03:04:00,57.1,47.7,29.46,South,180,0.0,0.2,71,0.00,,,0.00,WUHU216HW,2013-04-30 10:04:00,
2013-04-30 03:09:00,57.1,48.1,29.46,South,180,0.2,0.2,72,0.00,,,0.00,WUHU216HW,2013-04-30 10:09:00,
2013-04-30 03:14:00,56.9,48.2,29.46,SSW,203,0.7,1.1,73,0.00,,,0.00,WUHU216HW,2013-04-30 10:14:00,
2013-04-30 03:19:00,56.5,48.0,29.46,SW,225,0.4,1.1,73,0.00,,,0.00,WUHU216HW,2013-04-30 10:19:00,
2013-04-30 03:24:00,56.5,48.0,29.46,South,180,0.0,1.1,73,0.00,,,0.00,WUHU216HW,2013-04-30 10:24:00,
2013-04-30 03:29:00,56.3,47.8,29.46,South,180,0.0,1.1,73,0.00,,,0.00,WUHU216HW,2013-04-30 10:29:00,
2013-04-30 03:34:00,56.5,48.0,29.46,NW,315,0.0,0.7,73,0.00,,,0.00,WUHU216HW,2013-04-30 10:34:00,
2013-04-30 03:39:00,56.3,47.8,29.46,SSW,203,0.0,0.7,73,0.00,,,0.00,WUHU216HW,2013-04-30 10:39:00,
2013-04-30 03:44:00,56.3,47.8,29.46,SSW,203,0.0,0.4,73,0.00,,,0.00,WUHU216HW,2013-04-30 10:44:00,
2013-04-30 03:49:00,56.3,47.8,29.46,SSW,203,0.0,0.2,73,0.00,,,0.00,WUHU216HW,2013-04-30 10:49:00,
2013-04-30 03:54:00,56.2,47.6,29.46,SSW,203,0.0,0.4,73,0.00,,,0.00,WUHU216HW,2013-04-30 10:54:00,
2013-04-30 03:59:00,56.2,47.6,29.46,SSW,203,0.0,0.4,73,0.00,,,0.00,WUHU216HW,2013-04-30 10:59:00,
2013-04-30 04:04:00,56.2,47.6,29.47,SSW,203,0.0,0.0,73,0.00,,,0.00,WUHU216HW,2013-04-30 11:04:00,
2013-04-30 04:09:00,55.8,47.3,29.47,SSW,203,0.0,0.0,73,0.00,,,0.00,WUHU216HW,2013-04-30 11:09:00,
2013-04-30 04:14:00,55.6,47.1,29.46,SSW,203,0.0,0.2,73,0.00,,,0.00,WUHU216HW,2013-04-30 11:14:00,
2013-04-30 04:19:00,55.4,46.9,29.46,SSW,203,0.0,0.2,73,0.00,,,0.00,WUHU216HW,2013-04-30 11:19:00,
2013-04-30 04:24:00,55.4,46.9,29.46,SSW,203,0.0,0.0,73,0.00,,,0.00,WUHU216HW,2013-04-30 11:24:00,
2013-04-30 04:29:00,55.3,46.7,29.46,SSW,203,0.0,0.0,73,0.00,,,0.00,WUHU216HW,2013-04-30 11:29:00,
2013-04-30 04:34:00,55.1,46.9,29.47,SSW,203,0.0,0.0,74,0.00,,,0.00,WUHU216HW,2013-04-30 11:34:00,
2013-04-30 04:39:00,55.1,46.9,29.46,SSW,203,0.0,0.0,74,0.00,,,0.00,WUHU216HW,2013-04-30 11:39:00,
2013-04-30 04:44:00,54.9,46.7,29.47,SSW,203,0.0,0.0,74,0.00,,,0.00,WUHU216HW,2013-04-30 11:44:00,
2013-04-30 04:49:00,54.9,46.7,29.46,SSW,203,0.0,0.0,74,0.00,,,0.00,WUHU216HW,2013-04-30 11:49:00,
2013-04-30 04:54:00,54.9,46.7,29.46,SSW,203,0.0,0.0,74,0.00,,,0.00,WUHU216HW,2013-04-30 11:54:00,
2013-04-30 04:59:00,54.7,46.6,29.47,SSW,203,0.0,0.0,74,0.00,,,0.00,WUHU216HW,2013-04-30 11:59:00,
2013-04-30 05:04:00,54.7,46.9,29.46,SSW,203,0.0,0.0,75,0.00,,,0.00,WUHU216HW,2013-04-30 12:04:00,
2013-04-30 05:09:00,54.4,46.6,29.46,SSW,203,0.0,0.0,75,0.00,,,0.00,WUHU216HW,2013-04-30 12:09:00,
2013-04-30 05:14:00,54.4,46.6,29.46,SSW,203,0.2,0.4,75,0.00,,,0.00,WUHU216HW,2013-04-30 12:14:00,
2013-04-30 05:19:00,54.4,46.6,29.46,SSW,203,0.0,0.4,75,0.00,,,0.00,WUHU216HW,2013-04-30 12:19:00,
2013-04-30 05:24:00,54.4,46.6,29.47,SSW,203,0.0,0.2,75,0.00,,,0.00,WUHU216HW,2013-04-30 12:24:00,
2013-04-30 05:29:00,54.4,46.6,29.47,SSW,203,0.0,0.0,75,0.00,,,0.00,WUHU216HW,2013-04-30 12:29:00,
2013-04-30 05:34:00,54.2,46.5,29.47,SSW,203,0.0,0.2,75,0.00,,,0.00,WUHU216HW,2013-04-30 12:34:00,
2013-04-30 05:39:00,54.2,46.5,29.47,SSW,203,0.0,0.2,75,0.00,,,0.00,WUHU216HW,2013-04-30 12:39:00,
2013-04-30 05:44:00,54.0,46.3,29.47,SSW,203,0.0,0.0,75,0.00,,,0.00,WUHU216HW,2013-04-30 12:44:00,
2013-04-30 05:49:00,54.0,46.3,29.47,SSW,203,0.0,0.0,75,0.00,,,0.00,WUHU216HW,2013-04-30 12:49:00,
2013-04-30 05:54:00,54.0,46.3,29.47,SSW,203,0.0,0.0,75,0.00,,,0.00,WUHU216HW,2013-04-30 12:54:00,
2013-04-30 05:59:00,53.8,46.1,29.47,SSW,203,0.0,0.0,75,0.00,,,0.00,WUHU216HW,2013-04-30 12:59:00,
2013-04-30 06:04:00,53.8,46.1,29.47,SSW,203,0.0,0.0,75,0.00,,,0.00,WUHU216HW,2013-04-30 13:04:00,
2013-04-30 06:09:00,53.8,46.1,29.47,SSW,203,0.0,0.0,75,0.00,,,0.00,WUHU216HW,2013-04-30 13:09:00,
2013-04-30 06:14:00,53.6,45.9,29.47,SW,225,0.0,0.4,75,0.00,,,0.00,WUHU216HW,2013-04-30 13:14:00,
2013-04-30 06:19:00,53.6,46.3,29.47,SW,225,0.0,0.4,76,0.00,,,0.00,WUHU216HW,2013-04-30 13:19:00,
2013-04-30 06:24:00,53.6,46.3,29.48,WNW,293,0.0,0.4,76,0.00,,,0.00,WUHU216HW,2013-04-30 13:24:00,
2013-04-30 06:29:00,53.6,46.3,29.48,WNW,293,0.2,0.4,76,0.00,,,0.00,WUHU216HW,2013-04-30 13:29:00,
2013-04-30 06:34:00,53.6,46.3,29.48,WNW,293,0.0,0.4,76,0.00,,,0.00,WUHU216HW,2013-04-30 13:34:00,
2013-04-30 06:39:00,53.6,46.3,29.49,WNW,293,0.0,0.2,76,0.00,,,0.00,WUHU216HW,2013-04-30 13:39:00,
2013-04-30 06:44:00,53.6,46.3,29.49,WNW,293,0.0,0.0,76,0.00,,,0.00,WUHU216HW,2013-04-30 13:44:00,
2013-04-30 06:49:00,53.6,46.3,29.49,WNW,293,0.0,0.0,76,0.00,,,0.00,WUHU216HW,2013-04-30 13:49:00,
2013-04-30 06:54:00,53.6,46.6,29.49,WNW,293,0.0,0.7,77,0.00,,,0.00,WUHU216HW,2013-04-30 13:54:00,
2013-04-30 06:59:00,53.8,46.8,29.49,WNW,293,0.0,0.7,77,0.00,,,0.00,WUHU216HW,2013-04-30 13:59:00,
2013-04-30 07:04:00,53.8,46.8,29.49,West,270,0.0,0.4,77,0.00,,,0.00,WUHU216HW,2013-04-30 14:04:00,
2013-04-30 07:09:00,54.0,47.0,29.49,West,270,0.0,0.4,77,0.00,,,0.00,WUHU216HW,2013-04-30 14:09:00,
2013-04-30 07:14:00,54.2,47.2,29.50,West,270,0.0,0.0,77,0.00,,,0.00,WUHU216HW,2013-04-30 14:14:00,
2013-04-30 07:19:00,54.4,47.6,29.50,West,270,0.0,0.0,78,0.00,,,0.00,WUHU216HW,2013-04-30 14:19:00,
2013-04-30 07:24:00,54.5,47.8,29.50,West,270,0.0,0.0,78,0.00,,,0.00,WUHU216HW,2013-04-30 14:24:00,
2013-04-30 07:29:00,54.7,48.3,29.50,West,270,0.0,0.0,79,0.00,,,0.00,WUHU216HW,2013-04-30 14:29:00,
2013-04-30 07:34:00,55.1,48.3,29.50,West,270,0.0,0.0,78,0.00,,,0.00,WUHU216HW,2013-04-30 14:34:00,
2013-04-30 07:39:00,55.4,48.6,29.50,West,270,0.0,0.4,78,0.00,,,0.00,WUHU216HW,2013-04-30 14:39:00,
2013-04-30 07:44:00,55.8,49.0,29.50,West,270,0.0,0.4,78,0.00,,,0.00,WUHU216HW,2013-04-30 14:44:00,
2013-04-30 07:49:00,56.0,49.1,29.50,SW,225,0.0,0.7,78,0.00,,,0.00,WUHU216HW,2013-04-30 14:49:00,
2013-04-30 07:54:00,56.3,49.5,29.50,SSW,203,0.2,0.7,78,0.00,,,0.00,WUHU216HW,2013-04-30 14:54:00,
2013-04-30 07:59:00,56.7,49.5,29.50,SSW,203,0.0,0.7,77,0.00,,,0.00,WUHU216HW,2013-04-30 14:59:00,
2013-04-30 08:04:00,56.9,49.7,29.50,SSW,203,0.4,0.4,77,0.00,,,0.00,WUHU216HW,2013-04-30 15:04:00,
2013-04-30 08:09:00,57.2,49.7,29.50,WSW,248,0.0,1.1,76,0.00,,,0.00,WUHU216HW,2013-04-30 15:09:00,
2013-04-30 08:14:00,57.2,49.7,29.50,WSW,248,0.0,1.1,76,0.00,,,0.00,WUHU216HW,2013-04-30 15:14:00,
2013-04-30 08:38:00,58.3,50.4,29.49,SSW,203,0.0,0.0,75,0.00,,,0.00,WUHU216HW,2013-04-30 15:38:00,
2013-04-30 08:43:00,58.3,50.4,29.49,SSW,203,0.0,0.0,75,0.00,,,0.00,WUHU216HW,2013-04-30 15:43:00,
2013-04-30 08:48:00,58.3,50.4,29.49,SSW,203,0.0,0.0,75,0.00,,,0.00,WUHU216HW,2013-04-30 15:48:00,
2013-04-30 09:00:00,59.4,50.8,29.49,SW,225,0.4,0.4,73,0.00,,,0.00,WUHU216HW,2013-04-30 16:00:00,
2013-04-30 09:05:00,59.8,50.8,29.50,WSW,248,1.3,1.8,72,0.00,,,0.00,WUHU216HW,2013-04-30 16:05:00,
2013-04-30 09:10:00,59.9,50.6,29.49,NW,315,0.0,1.8,71,0.00,,,0.00,WUHU216HW,2013-04-30 16:10:00,
2013-04-30 09:15:00,60.1,50.8,29.49,West,270,0.0,1.6,71,0.00,,,0.00,WUHU216HW,2013-04-30 16:15:00,
2013-04-30 09:20:00,60.5,50.8,29.50,NW,315,0.4,1.1,70,0.00,,,0.00,WUHU216HW,2013-04-30 16:20:00,
2013-04-30 09:25:00,60.8,51.1,29.50,West,270,0.4,0.9,70,0.00,,,0.00,WUHU216HW,2013-04-30 16:25:00,
2013-04-30 09:30:00,61.0,51.3,29.50,West,270,0.0,0.9,70,0.00,,,0.00,WUHU216HW,2013-04-30 16:30:00,
2013-04-30 09:35:00,61.6,51.8,29.50,SW,225,0.0,0.7,70,0.00,,,0.00,WUHU216HW,2013-04-30 16:35:00,
2013-04-30 09:40:00,62.1,52.3,29.50,West,270,1.1,1.8,70,0.00,,,0.00,WUHU216HW,2013-04-30 16:40:00,
2013-04-30 09:45:00,62.3,52.0,29.51,NNW,338,0.0,1.8,69,0.00,,,0.00,WUHU216HW,2013-04-30 16:45:00,
2013-04-30 09:50:00,62.6,52.3,29.51,NW,315,0.4,1.3,69,0.00,,,0.00,WUHU216HW,2013-04-30 16:50:00,
2013-04-30 09:55:00,63.0,52.3,29.51,North,0,2.9,2.9,68,0.00,,,0.00,WUHU216HW,2013-04-30 16:55:00,
2013-04-30 10:00:00,63.5,51.6,29.51,NNE,23,0.4,3.4,65,0.00,,,0.00,WUHU216HW,2013-04-30 17:00:00,
2013-04-30 10:05:00,63.9,51.8,29.51,NNW,338,0.4,3.4,65,0.00,,,0.00,WUHU216HW,2013-04-30 17:05:00,
2013-04-30 10:10:00,63.9,51.8,29.51,NNW,338,0.4,1.1,65,0.00,,,0.00,WUHU216HW,2013-04-30 17:10:00,
2013-04-30 10:32:00,66.2,51.6,29.50,SSW,203,0.9,0.9,59,0.00,,,0.00,WUHU216HW,2013-04-30 17:32:00,
2013-04-30 10:37:00,66.4,51.2,29.50,North,0,0.4,2.5,58,0.00,,,0.00,WUHU216HW,2013-04-30 17:37:00,
2013-04-30 10:42:00,66.8,51.0,29.50,NE,45,0.4,3.4,57,0.00,,,0.00,WUHU216HW,2013-04-30 17:42:00,
2013-04-30 10:47:00,67.1,50.9,29.50,North,0,1.6,3.4,56,0.00,,,0.00,WUHU216HW,2013-04-30 17:47:00,
2013-04-30 10:52:00,67.3,51.0,29.50,NNW,338,1.3,2.9,56,0.00,,,0.00,WUHU216HW,2013-04-30 17:52:00,
2013-04-30 10:57:00,67.3,51.0,29.50,NNW,338,1.3,1.6,56,0.00,,,0.00,WUHU216HW,2013-04-30 17:57:00,
2013-04-30 11:02:00,68.2,51.4,29.50,North,0,2.2,2.2,55,0.00,,,0.00,WUHU216HW,2013-04-30 18:02:00,
2013-04-30 11:07:00,68.6,51.2,29.51,North,0,2.5,2.5,54,0.00,,,0.00,WUHU216HW,2013-04-30 18:07:00,
2013-04-30 11:12:00,69.1,51.2,29.50,North,0,1.8,2.5,53,0.00,,,0.00,WUHU216HW,2013-04-30 18:12:00,
2013-04-30 11:17:00,69.5,50.0,29.50,North,0,2.5,3.8,50,0.00,,,0.00,WUHU216HW,2013-04-30 18:17:00,
2013-04-30 11:22:00,70.2,47.8,29.50,NE,45,3.4,4.9,45,0.00,,,0.00,WUHU216HW,2013-04-30 18:22:00,
2013-04-30 11:27:00,71.1,48.0,29.50,North,0,1.6,5.1,44,0.00,,,0.00,WUHU216HW,2013-04-30 18:27:00,
2013-04-30 11:32:00,71.6,47.3,29.50,North,0,1.8,5.1,42,0.00,,,0.00,WUHU216HW,2013-04-30 18:32:00,
2013-04-30 11:37:00,72.5,47.5,29.50,North,0,0.4,4.9,41,0.00,,,0.00,WUHU216HW,2013-04-30 18:37:00,
2013-04-30 11:42:00,73.3,47.5,29.51,NW,315,1.8,4.9,40,0.00,,,0.00,WUHU216HW,2013-04-30 18:42:00,
2013-04-30 11:47:00,74.2,46.1,29.50,North,0,2.2,4.9,37,0.00,,,0.00,WUHU216HW,2013-04-30 18:47:00,
2013-04-30 11:52:00,74.9,46.7,29.50,NNE,23,1.1,3.4,37,0.00,,,0.00,WUHU216HW,2013-04-30 18:52:00,
2013-04-30 11:57:00,75.8,46.0,29.50,South,180,2.0,4.3,35,0.00,,,0.00,WUHU216HW,2013-04-30 18:57:00,
2013-04-30 12:02:00,76.3,48.1,29.50,SW,225,0.4,4.3,37,0.00,,,0.00,WUHU216HW,2013-04-30 19:02:00,
2013-04-30 12:07:00,76.9,47.8,29.50,North,0,0.4,5.1,36,0.00,,,0.00,WUHU216HW,2013-04-30 19:07:00,
2013-04-30 12:12:00,77.6,47.6,29.50,NNE,23,0.4,5.1,35,0.00,,,0.00,WUHU216HW,2013-04-30 19:12:00,
2013-04-30 12:17:00,78.1,46.5,29.49,NE,45,5.6,5.6,33,0.00,,,0.00,WUHU216HW,2013-04-30 19:17:00,
2013-04-30 12:22:00,78.7,47.8,29.49,SW,225,1.1,5.6,34,0.00,,,0.00,WUHU216HW,2013-04-30 19:22:00,
2013-04-30 12:27:00,79.4,48.4,29.50,NNW,338,0.9,5.6,34,0.00,,,0.00,WUHU216HW,2013-04-30 19:27:00,
2013-04-30 12:32:00,79.9,47.3,29.49,SSW,203,1.1,2.5,32,0.00,,,0.00,WUHU216HW,2013-04-30 19:32:00,
2013-04-30 12:37:00,80.1,47.5,29.49,SSW,203,0.4,2.5,32,0.00,,,0.00,WUHU216HW,2013-04-30 19:37:00,
2013-04-30 12:42:00,80.3,48.4,29.49,NW,315,0.7,2.2,33,0.00,,,0.00,WUHU216HW,2013-04-30 19:42:00,
2013-04-30 12:47:00,80.8,48.2,29.49,NNW,338,2.5,2.5,32,0.00,,,0.00,WUHU216HW,2013-04-30 19:47:00,
2013-04-30 12:52:00,81.4,46.0,29.48,North,0,3.6,3.6,29,0.00,,,0.00,WUHU216HW,2013-04-30 19:52:00,
2013-04-30 12:57:00,81.7,48.1,29.49,NNW,338,1.1,3.6,31,0.00,,,0.00,WUHU216HW,2013-04-30 19:57:00,
2013-04-30 13:02:00,82.3,47.7,29.48,NNW,338,5.4,5.4,30,0.00,,,0.00,WUHU216HW,2013-04-30 20:02:00,
2013-04-30 13:07:00,82.6,48.1,29.49,NNE,23,6.3,6.3,30,0.00,,,0.00,WUHU216HW,2013-04-30 20:07:00,
2013-04-30 13:12:00,82.8,47.2,29.48,NNE,23,1.3,6.3,29,0.00,,,0.00,WUHU216HW,2013-04-30 20:12:00,
2013-04-30 13:17:00,83.0,47.4,29.49,North,0,1.1,6.3,29,0.00,,,0.00,WUHU216HW,2013-04-30 20:17:00,
2013-04-30 13:22:00,83.2,47.5,29.49,North,0,0.7,4.5,29,0.00,,,0.00,WUHU216HW,2013-04-30 20:22:00,
2013-04-30 13:27:00,83.2,47.5,29.49,North,0,1.3,5.4,29,0.00,,,0.00,WUHU216HW,2013-04-30 20:27:00,
2013-04-30 13:32:00,83.5,47.8,29.48,WSW,248,0.7,5.4,29,0.00,,,0.00,WUHU216HW,2013-04-30 20:32:00,
2013-04-30 13:37:00,83.9,47.1,29.48,NNE,23,2.5,4.0,28,0.00,,,0.00,WUHU216HW,2013-04-30 20:37:00,
2013-04-30 13:42:00,84.2,47.3,29.48,NNE,23,0.4,3.4,28,0.00,,,0.00,WUHU216HW,2013-04-30 20:42:00,
2013-04-30 13:47:00,84.4,47.5,29.48,NNW,338,2.5,3.4,28,0.00,,,0.00,WUHU216HW,2013-04-30 20:47:00,
2013-04-30 13:52:00,84.4,45.5,29.48,North,0,1.1,5.8,26,0.00,,,0.00,WUHU216HW,2013-04-30 20:52:00,
2013-04-30 13:57:00,84.4,47.5,29.47,WNW,293,1.1,5.8,28,0.00,,,0.00,WUHU216HW,2013-04-30 20:57:00,
2013-04-30 14:02:00,84.6,48.8,29.48,SW,225,1.1,2.2,29,0.00,,,0.00,WUHU216HW,2013-04-30 21:02:00,
2013-04-30 14:07:00,84.6,48.8,29.47,ENE,68,2.5,4.7,29,0.00,,,0.00,WUHU216HW,2013-04-30 21:07:00,
2013-04-30 14:12:00,84.6,47.7,29.47,WSW,248,2.0,4.7,28,0.00,,,0.00,WUHU216HW,2013-04-30 21:12:00,
2013-04-30 14:17:00,84.6,48.8,29.47,NNW,338,1.1,2.9,29,0.00,,,0.00,WUHU216HW,2013-04-30 21:17:00,
2013-04-30 14:22:00,84.6,48.8,29.47,NW,315,0.9,4.3,29,0.00,,,0.00,WUHU216HW,2013-04-30 21:22:00,
2013-04-30 14:27:00,84.6,48.8,29.47,South,180,0.7,4.3,29,0.00,,,0.00,WUHU216HW,2013-04-30 21:27:00,
2013-04-30 14:32:00,84.2,48.4,29.47,South,180,0.7,3.1,29,0.00,,,0.00,WUHU216HW,2013-04-30 21:32:00,
2013-04-30 14:37:00,84.2,47.3,29.47,NNW,338,2.0,3.1,28,0.00,,,0.00,WUHU216HW,2013-04-30 21:37:00,
2013-04-30 14:42:00,83.9,48.2,29.47,NNE,23,0.9,2.7,29,0.00,,,0.00,WUHU216HW,2013-04-30 21:42:00,
2013-04-30 14:47:00,83.9,49.1,29.47,North,0,0.2,2.7,30,0.00,,,0.00,WUHU216HW,2013-04-30 21:47:00,
2013-04-30 14:52:00,83.9,49.1,29.47,NNW,338,0.9,2.5,30,0.00,,,0.00,WUHU216HW,2013-04-30 21:52:00,
2013-04-30 14:57:00,84.2,50.3,29.47,West,270,2.2,3.4,31,0.00,,,0.00,WUHU216HW,2013-04-30 21:57:00,
2013-04-30 15:02:00,84.1,49.3,29.46,WNW,293,0.7,4.0,30,0.00,,,0.00,WUHU216HW,2013-04-30 22:02:00,
2013-04-30 15:07:00,84.1,50.1,29.46,NNW,338,1.1,4.0,31,0.00,,,0.00,WUHU216HW,2013-04-30 22:07:00,
2013-04-30 15:12:00,84.1,49.3,29.46,North,0,1.3,4.7,30,0.00,,,0.00,WUHU216HW,2013-04-30 22:12:00,
2013-04-30 15:17:00,84.2,50.3,29.46,SSW,203,1.3,4.7,31,0.00,,,0.00,WUHU216HW,2013-04-30 22:17:00,
2013-04-30 15:22:00,84.2,49.5,29.46,NNW,338,1.1,4.3,30,0.00,,,0.00,WUHU216HW,2013-04-30 22:22:00,
2013-04-30 15:27:00,84.1,50.1,29.46,West,270,2.0,5.4,31,0.00,,,0.00,WUHU216HW,2013-04-30 22:27:00,
2013-04-30 15:32:00,83.9,50.8,29.46,South,180,2.2,5.4,32,0.00,,,0.00,WUHU216HW,2013-04-30 22:32:00,
2013-04-30 15:37:00,83.7,50.6,29.45,NW,315,0.4,3.1,32,0.00,,,0.00,WUHU216HW,2013-04-30 22:37:00,
2013-04-30 15:42:00,83.5,50.4,29.46,South,180,3.1,3.4,32,0.00,,,0.00,WUHU216HW,2013-04-30 22:42:00,
2013-04-30 15:47:00,83.2,50.1,29.45,North,0,2.2,4.0,32,0.00,,,0.00,WUHU216HW,2013-04-30 22:47:00,
2013-04-30 15:52:00,83.0,50.0,29.45,ENE,68,0.4,4.0,32,0.00,,,0.00,WUHU216HW,2013-04-30 22:52:00,
2013-04-30 15:57:00,83.2,50.1,29.45,WSW,248,1.6,3.6,32,0.00,,,0.00,WUHU216HW,2013-04-30 22:57:00,
2013-04-30 16:02:00,83.0,50.0,29.45,NNE,23,1.3,3.4,32,0.00,,,0.00,WUHU216HW,2013-04-30 23:02:00,
2013-04-30 16:07:00,82.8,49.8,29.45,North,0,0.4,2.5,32,0.00,,,0.00,WUHU216HW,2013-04-30 23:07:00,
2013-04-30 16:12:00,82.8,49.8,29.45,WSW,248,4.0,4.0,32,0.00,,,0.00,WUHU216HW,2013-04-30 23:12:00,
2013-04-30 16:17:00,82.6,49.6,29.45,South,180,1.6,4.9,32,0.00,,,0.00,WUHU216HW,2013-04-30 23:17:00,
2013-04-30 16:22:00,82.4,49.5,29.45,SSW,203,3.4,4.9,32,0.00,,,0.00,WUHU216HW,2013-04-30 23:22:00,
2013-04-30 16:27:00,81.9,49.8,29.45,SE,135,3.8,5.8,33,0.00,,,0.00,WUHU216HW,2013-04-30 23:27:00,
2013-04-30 16:32:00,81.4,48.6,29.45,SSW,203,2.9,5.8,32,0.00,,,0.00,WUHU216HW,2013-04-30 23:32:00,
2013-04-30 16:37:00,81.4,49.3,29.45,WSW,248,1.8,4.5,33,0.00,,,0.00,WUHU216HW,2013-04-30 23:37:00,
2013-04-30 16:42:00,81.2,49.2,29.45,SSE,158,1.3,5.1,33,0.00,,,0.00,WUHU216HW,2013-04-30 23:42:00,
2013-04-30 16:47:00,81.2,49.2,29.45,South,180,1.8,5.1,33,0.00,,,0.00,WUHU216HW,2013-04-30 23:47:00,
2013-04-30 16:52:00,81.2,50.0,29.45,NNW,338,1.1,2.2,34,0.00,,,0.00,WUHU216HW,2013-04-30 23:52:00,
2013-04-30 16:57:00,81.0,49.1,29.45,West,270,2.2,2.7,33,0.00,,,0.00,WUHU216HW,2013-04-30 23:57:00,
2013-04-30 17:02:00,80.6,48.8,29.45,SE,135,1.1,3.4,33,0.00,,,0.00,WUHU216HW,2013-05-01 00:02:00,
2013-04-30 17:07:00,80.3,48.4,29.45,NW,315,0.7,3.4,33,0.00,,,0.00,WUHU216HW,2013-05-01 00:07:00,
2013-04-30 17:12:00,80.3,48.4,29.45,SSW,203,3.4,3.4,33,0.00,,,0.00,WUHU216HW,2013-05-01 00:12:00,
2013-04-30 17:17:00,80.1,49.1,29.45,NNE,23,1.3,3.4,34,0.00,,,0.00,WUHU216HW,2013-05-01 00:17:00,
2013-04-30 17:22:00,79.9,48.9,29.45,West,270,0.9,6.3,34,0.00,,,0.00,WUHU216HW,2013-05-01 00:22:00,
2013-04-30 17:27:00,79.7,48.7,29.45,South,180,3.1,6.3,34,0.00,,,0.00,WUHU216HW,2013-05-01 00:27:00,
2013-04-30 17:32:00,79.6,47.8,29.45,NNW,338,1.1,3.8,33,0.00,,,0.00,WUHU216HW,2013-05-01 00:32:00,
2013-04-30 17:37:00,79.2,47.4,29.45,SW,225,1.1,3.8,33,0.00,,,0.00,WUHU216HW,2013-05-01 00:37:00,
2013-04-30 17:42:00,79.0,47.4,29.45,WSW,248,2.5,3.4,33,0.00,,,0.00,WUHU216HW,2013-05-01 00:42:00,
2013-04-30 17:47:00,78.8,47.9,29.45,SSE,158,1.6,2.9,34,0.00,,,0.00,WUHU216HW,2013-05-01 00:47:00,
2013-04-30 17:52:00,78.7,47.8,29.45,NNW,338,0.9,2.2,34,0.00,,,0.00,WUHU216HW,2013-05-01 00:52:00,
2013-04-30 17:57:00,78.5,47.6,29.45,SSW,203,1.8,3.6,34,0.00,,,0.00,WUHU216HW,2013-05-01 00:57:00,
2013-04-30 18:02:00,78.1,47.4,29.45,South,180,0.4,3.6,34,0.00,,,0.00,WUHU216HW,2013-05-01 01:02:00,
2013-04-30 18:07:00,77.9,48.0,29.45,SSW,203,0.7,2.5,35,0.00,,,0.00,WUHU216HW,2013-05-01 01:07:00,
2013-04-30 18:12:00,77.8,47.8,29.45,SSE,158,0.4,2.2,35,0.00,,,0.00,WUHU216HW,2013-05-01 01:12:00,
2013-04-30 18:17:00,77.6,46.9,29.45,SSW,203,0.4,2.2,34,0.00,,,0.00,WUHU216HW,2013-05-01 01:17:00,
2013-04-30 18:22:00,77.6,47.6,29.45,North,0,0.7,1.8,35,0.00,,,0.00,WUHU216HW,2013-05-01 01:22:00,
2013-04-30 18:27:00,77.4,47.4,29.46,NNW,338,1.3,1.8,35,0.00,,,0.00,WUHU216HW,2013-05-01 01:27:00,
2013-04-30 18:32:00,77.4,47.4,29.46,SE,135,0.7,1.6,35,0.00,,,0.00,WUHU216HW,2013-05-01 01:32:00,
2013-04-30 18:37:00,77.2,46.5,29.46,ESE,113,0.2,1.6,34,0.00,,,0.00,WUHU216HW,2013-05-01 01:37:00,
2013-04-30 18:42:00,77.2,47.4,29.46,North,0,0.2,1.3,35,0.00,,,0.00,WUHU216HW,2013-05-01 01:42:00,
2013-04-30 18:47:00,77.0,47.2,29.46,SE,135,0.2,1.1,35,0.00,,,0.00,WUHU216HW,2013-05-01 01:47:00,
2013-04-30 18:52:00,77.0,46.5,29.46,SW,225,0.4,1.3,34,0.00,,,0.00,WUHU216HW,2013-05-01 01:52:00,
2013-04-30 18:57:00,76.9,47.0,29.46,SE,135,0.0,1.6,35,0.00,,,0.00,WUHU216HW,2013-05-01 01:57:00,
2013-04-30 19:02:00,76.7,46.8,29.46,NE,45,0.9,1.6,35,0.00,,,0.00,WUHU216HW,2013-05-01 02:02:00,
2013-04-30 19:07:00,76.7,46.8,29.46,SW,225,0.4,1.3,35,0.00,,,0.00,WUHU216HW,2013-05-01 02:07:00,
2013-04-30 19:12:00,76.3,46.5,29.46,WSW,248,0.2,1.1,35,0.00,,,0.00,WUHU216HW,2013-05-01 02:12:00,
2013-04-30 19:17:00,76.3,46.5,29.47,North,0,0.0,1.1,35,0.00,,,0.00,WUHU216HW,2013-05-01 02:17:00,
2013-04-30 19:22:00,76.0,47.0,29.47,West,270,0.0,0.7,36,0.00,,,0.00,WUHU216HW,2013-05-01 02:22:00,
2013-04-30 19:27:00,75.8,47.5,29.47,SW,225,0.9,0.9,37,0.00,,,0.00,WUHU216HW,2013-05-01 02:27:00,
2013-04-30 19:32:00,75.4,47.3,29.47,NW,315,0.4,0.9,37,0.00,,,0.00,WUHU216HW,2013-05-01 02:32:00,
2013-04-30 19:37:00,75.1,46.9,29.47,WSW,248,0.0,0.9,37,0.00,,,0.00,WUHU216HW,2013-05-01 02:37:00,
2013-04-30 19:42:00,74.9,47.5,29.47,WSW,248,0.0,0.4,38,0.00,,,0.00,WUHU216HW,2013-05-01 02:42:00,
2013-04-30 19:47:00,74.5,47.2,29.48,West,270,0.2,0.9,38,0.00,,,0.00,WUHU216HW,2013-05-01 02:47:00,
2013-04-30 19:52:00,74.0,47.4,29.48,West,270,0.0,0.9,39,0.00,,,0.00,WUHU216HW,2013-05-01 02:52:00,
2013-04-30 19:57:00,73.4,47.0,29.47,West,270,0.0,0.4,39,0.00,,,0.00,WUHU216HW,2013-05-01 02:57:00,
2013-04-30 20:02:00,72.9,46.4,29.48,WSW,248,0.0,1.1,39,0.00,,,0.00,WUHU216HW,2013-05-01 03:02:00,
2013-04-30 20:07:00,72.5,46.9,29.48,WSW,248,0.0,1.1,40,0.00,,,0.00,WUHU216HW,2013-05-01 03:07:00,
2013-04-30 20:12:00,72.2,46.5,29.48,WNW,293,0.2,0.9,40,0.00,,,0.00,WUHU216HW,2013-05-01 03:12:00,
2013-04-30 20:17:00,71.6,46.1,29.48,West,270,0.4,0.4,40,0.00,,,0.00,WUHU216HW,2013-05-01 03:17:00,
2013-04-30 20:22:00,71.1,45.6,29.48,West,270,0.0,1.1,40,0.00,,,0.00,WUHU216HW,2013-05-01 03:22:00,
2013-04-30 20:27:00,70.7,45.3,29.48,West,270,0.4,1.8,40,0.00,,,0.00,WUHU216HW,2013-05-01 03:27:00,
2013-04-30 20:32:00,70.2,44.8,29.48,WNW,293,0.0,1.8,40,0.00,,,0.00,WUHU216HW,2013-05-01 03:32:00,
2013-04-30 20:37:00,69.8,44.5,29.48,SW,225,0.9,1.8,40,0.00,,,0.00,WUHU216HW,2013-05-01 03:37:00,
2013-04-30 20:42:00,69.7,42.9,29.49,WSW,248,0.4,1.8,38,0.00,,,0.00,WUHU216HW,2013-05-01 03:42:00,
2013-04-30 20:47:00,69.3,42.5,29.49,South,180,0.0,1.6,38,0.00,,,0.00,WUHU216HW,2013-05-01 03:47:00,
2013-04-30 20:52:00,69.3,41.8,29.49,West,270,0.2,1.6,37,0.00,,,0.00,WUHU216HW,2013-05-01 03:52:00,
2013-04-30 20:57:00,68.9,42.2,29.49,West,270,0.2,1.1,38,0.00,,,0.00,WUHU216HW,2013-05-01 03:57:00,
2013-04-30 21:01:00,68.8,42.0,29.49,NNW,338,0.2,1.1,38,0.00,,,0.00,WUHU216HW,2013-05-01 04:01:00,
2013-04-30 21:06:00,68.4,41.0,29.49,WSW,248,0.0,1.1,37,0.00,,,0.00,WUHU216HW,2013-05-01 04:06:00,
2013-04-30 21:11:00,67.9,41.2,29.49,WSW,248,0.4,1.1,38,0.00,,,0.00,WUHU216HW,2013-05-01 04:11:00,
2013-04-30 21:16:00,67.5,40.1,29.49,West,270,0.0,0.9,37,0.00,,,0.00,WUHU216HW,2013-05-01 04:16:00,
2013-04-30 21:21:00,67.1,39.9,29.49,WSW,248,0.0,0.9,37,0.00,,,0.00,WUHU216HW,2013-05-01 04:21:00,
2013-04-30 21:26:00,66.6,38.6,29.49,NW,315,0.0,1.1,36,0.00,,,0.00,WUHU216HW,2013-05-01 04:26:00,
2013-04-30 21:31:00,66.4,37.8,29.49,SW,225,0.0,1.1,35,0.00,,,0.00,WUHU216HW,2013-05-01 04:31:00,
2013-04-30 21:36:00,66.1,37.4,29.50,SSW,203,0.7,1.1,35,0.00,,,0.00,WUHU216HW,2013-05-01 04:36:00,
2013-04-30 21:41:00,65.9,37.3,29.50,WSW,248,0.2,0.9,35,0.00,,,0.00,WUHU216HW,2013-05-01 04:41:00,
2013-04-30 21:46:00,65.7,35.7,29.50,SW,225,0.4,0.9,33,0.00,,,0.00,WUHU216HW,2013-05-01 04:46:00,
2013-04-30 21:51:00,65.5,35.6,29.50,SW,225,0.4,0.9,33,0.00,,,0.00,WUHU216HW,2013-05-01 04:51:00,
2013-04-30 21:56:00,65.2,35.2,29.50,SW,225,0.4,0.9,33,0.00,,,0.00,WUHU216HW,2013-05-01 04:56:00,
2013-04-30 22:01:00,65.2,35.2,29.50,WNW,293,0.4,1.1,33,0.00,,,0.00,WUHU216HW,2013-05-01 05:01:00,
2013-04-30 22:06:00,65.0,35.0,29.50,WNW,293,0.2,1.1,33,0.00,,,0.00,WUHU216HW,2013-05-01 05:06:00,
2013-04-30 22:11:00,64.8,34.9,29.51,NW,315,0.0,1.1,33,0.00,,,0.00,WUHU216HW,2013-05-01 05:11:00,
2013-04-30 22:16:00,64.8,34.9,29.51,NW,315,0.0,1.1,33,0.00,,,0.00,WUHU216HW,2013-05-01 05:16:00,
2013-04-30 22:21:00,64.6,34.8,29.50,West,270,0.4,0.7,33,0.00,,,0.00,WUHU216HW,2013-05-01 05:21:00,
2013-04-30 22:26:00,64.6,34.8,29.51,NW,315,0.4,0.9,33,0.00,,,0.00,WUHU216HW,2013-05-01 05:26:00,
2013-04-30 22:31:00,64.8,34.2,29.51,NW,315,0.4,0.9,32,0.00,,,0.00,WUHU216HW,2013-05-01 05:31:00,
2013-04-30 22:36:00,64.8,34.9,29.51,SW,225,0.4,0.7,33,0.00,,,0.00,WUHU216HW,2013-05-01 05:36:00,
2013-04-30 22:41:00,64.8,34.9,29.51,SW,225,0.2,0.7,33,0.00,,,0.00,WUHU216HW,2013-05-01 05:41:00,
2013-04-30 22:46:00,64.8,34.2,29.51,WNW,293,0.9,1.1,32,0.00,,,0.00,WUHU216HW,2013-05-01 05:46:00,
2013-04-30 22:51:00,64.8,34.2,29.51,WSW,248,0.4,1.1,32,0.00,,,0.00,WUHU216HW,2013-05-01 05:51:00,
2013-04-30 22:56:00,64.8,34.2,29.51,West,270,0.0,0.9,32,0.00,,,0.00,WUHU216HW,2013-05-01 05:56:00,
2013-04-30 23:01:00,64.8,34.2,29.51,WSW,248,0.4,0.9,32,0.00,,,0.00,WUHU216HW,2013-05-01 06:01:00,
2013-04-30 23:06:00,64.8,34.9,29.51,WSW,248,0.4,1.1,33,0.00,,,0.00,WUHU216HW,2013-05-01 06:06:00,
2013-04-30 23:11:00,64.8,34.9,29.51,NW,315,0.4,1.1,33,0.00,,,0.00,WUHU216HW,2013-05-01 06:11:00,
2013-04-30 23:16:00,64.8,34.2,29.51,West,270,0.2,1.1,32,0.00,,,0.00,WUHU216HW,2013-05-01 06:16:00,
2013-04-30 23:21:00,64.6,34.0,29.51,SW,225,0.9,1.1,32,0.00,,,0.00,WUHU216HW,2013-05-01 06:21:00,
2013-04-30 23:26:00,64.4,33.8,29.51,West,270,0.2,0.9,32,0.00,,,0.00,WUHU216HW,2013-05-01 06:26:00,
2013-04-30 23:31:00,64.4,34.6,29.51,WSW,248,0.7,0.9,33,0.00,,,0.00,WUHU216HW,2013-05-01 06:31:00,
2013-04-30 23:36:00,64.3,34.4,29.51,SW,225,0.2,0.9,33,0.00,,,0.00,WUHU216HW,2013-05-01 06:36:00,
2013-04-30 23:41:00,64.3,34.4,29.51,SW,225,0.2,0.9,33,0.00,,,0.00,WUHU216HW,2013-05-01 06:41:00,